Location: Mount Cross
(36.6390°N, 79.4878°W)
Time: 02:04:33
(UTC+00:00)

SR - Pass Details

Date: 02 April 2023
Orbit: 580 x 867 km, 66.7° (Epoch: 08 June)

Event Time Altitude Azimuth Distance (km) Brightness Sun altitude
Rises 13:19:48 0° 351° (N) 2,824 ? 26.5°
Reaches altitude 10° 13:22:54 10° 15° (NNE) 1,948 ? 27.1°
Maximum altitude 13:25:26 15° 51° (NE) 1,670 ? 27.6°
Drops below altitude 10° 13:28:02 10° 86° (E) 2,011 ? 28.1°
Sets 13:31:18 0° 110° (ESE) 2,973 ? 28.7°
